| time (UTC) | temp F | wind direction | speed MPH | gust MPH | rain 1hr in | rain 24hr in | rain mn in | humidity % | barometer mb |
| 20260901134013 | 78 | 257 | 1.0 | 5.0 | 0.00 | 0.00 | 0.00 | 83 | 1017.0 |
| 20260901133515 | 78 | 186 | 1.0 | 9.0 | 0.00 | 0.00 | 0.00 | 82 | 1017.0 |
| 20260901133042 | 80 | 117 | 3.0 | 5.0 | 0.00 | 0.00 | 0.00 | 54 | 1016.8 |
| 20260901133029 | 77 | 188 | 2.0 | 9.0 | 0.00 | 0.00 | 0.00 | 84 | 1017.1 |
| 20260901132516 | 77 | 188 | 2.0 | 5.0 | 0.00 | 0.00 | 0.00 | 85 | 1017.1 |
| 20260901132006 | 76 | 283 | 1.0 | 7.0 | 0.00 | 0.00 | 0.00 | 86 | 1017.2 |
| 20260901131540 | 79 | 93 | 0.0 | 4.0 | 0.00 | 0.00 | 0.00 | 55 | 1016.8 |
| 20260901131522 | 75 | 179 | 2.0 | 7.0 | 0.00 | 0.00 | 0.00 | 86 | 1017.2 |
| 20260901131008 | 75 | 194 | 0.0 | 5.0 | 0.00 | 0.00 | 0.00 | 87 | 1017.2 |
| 20260901130508 | 75 | 179 | 1.0 | 5.0 | 0.00 | 0.00 | 0.00 | 87 | 1017.2 |
| 20260901130035 | 78 | 114 | 1.0 | 3.0 | 0.00 | 0.00 | 0.00 | 56 | 1016.6 |
| 20260901130023 | 74 | 136 | 1.0 | 6.0 | 0.00 | 0.00 | 0.00 | 87 | 1017.1 |
| 20260901125503 | 74 | 218 | 2.0 | 6.0 | 0.00 | 0.00 | 0.00 | 88 | 1017.0 |
| 20260901125002 | 74 | 175 | 2.0 | 6.0 | 0.00 | 0.00 | 0.00 | 88 | 1017.0 |
| 20260901124534 | 0 | 0.0 | 0.0 | 0.00 | 0.00 | 0.00 | 1016.5 | ||
| 20260901124505 | 74 | 186 | 2.0 | 6.0 | 0.00 | 0.00 | 0.00 | 88 | 1017.0 |
| 20260901124003 | 73 | 180 | 1.0 | 6.0 | 0.00 | 0.00 | 0.00 | 88 | 1017.0 |
| 20260901123503 | 73 | 192 | 1.0 | 5.0 | 0.00 | 0.00 | 0.00 | 89 | 1017.0 |
| 20260901123035 | 0 | 0.0 | 0.0 | 0.00 | 0.00 | 0.00 | 1016.2 | ||
| 20260901123007 | 73 | 200 | 1.0 | 5.0 | 0.00 | 0.00 | 0.00 | 89 | 1017.0 |
| 20260901122504 | 73 | 180 | 2.0 | 4.0 | 0.00 | 0.00 | 0.00 | 89 | 1017.0 |
| 20260901122004 | 73 | 175 | 1.0 | 5.0 | 0.00 | 0.00 | 0.00 | 89 | 1016.9 |
| 20260901121521 | 0 | 0.0 | 0.0 | 0.00 | 0.00 | 0.00 | 1016.1 | ||
| 20260901121511 | 73 | 200 | 1.0 | 6.0 | 0.00 | 0.00 | 0.00 | 89 | 1016.9 |
| 20260901121007 | 73 | 182 | 2.0 | 6.0 | 0.00 | 0.00 | 0.00 | 89 | 1016.9 |
| 20260901120506 | 73 | 180 | 2.0 | 5.0 | 0.00 | 0.00 | 0.00 | 89 | 1016.8 |
| 20260901120019 | 73 | 198 | 0.0 | 5.0 | 0.00 | 0.00 | 0.00 | 89 | 1016.8 |
| 20260901115510 | 73 | 190 | 1.0 | 5.0 | 0.00 | 0.00 | 0.00 | 89 | 1016.7 |
| 20260901115011 | 73 | 200 | 1.0 | 4.0 | 0.00 | 0.00 | 0.00 | 89 | 1016.6 |
| 20260901114512 | 0 | 0.0 | 0.0 | 0.00 | 0.00 | 0.00 | 1015.6 | ||
| 20260901114504 | 73 | 175 | 2.0 | 6.0 | 0.00 | 0.00 | 0.00 | 89 | 1016.5 |
| 20260901114003 | 73 | 229 | 2.0 | 6.0 | 0.00 | 0.00 | 0.00 | 89 | 1016.4 |
| 20260901113503 | 73 | 184 | 2.0 | 6.0 | 0.00 | 0.00 | 0.00 | 89 | 1016.3 |
| 20260901113006 | 73 | 182 | 2.0 | 5.0 | 0.00 | 0.00 | 0.00 | 89 | 1016.3 |
| 20260901112503 | 73 | 234 | 2.0 | 5.0 | 0.00 | 0.00 | 0.00 | 89 | 1016.3 |
| 20260901112003 | 73 | 182 | 1.0 | 6.0 | 0.00 | 0.00 | 0.00 | 89 | 1016.2 |
| 20260901111603 | 0 | 0.0 | 0.0 | 0.00 | 0.00 | 0.00 | 1015.9 | ||
| 20260901111509 | 73 | 196 | 2.0 | 6.0 | 0.00 | 0.00 | 0.00 | 89 | 1016.2 |
| 20260901111006 | 73 | 182 | 2.0 | 8.0 | 0.00 | 0.00 | 0.00 | 89 | 1016.2 |
| 20260901110503 | 73 | 206 | 2.0 | 8.0 | 0.00 | 0.00 | 0.00 | 89 | 1016.2 |
| 20260901110055 | 0 | 0.0 | 0.0 | 0.00 | 0.00 | 0.00 | 1015.6 | ||
| 20260901110019 | 73 | 235 | 2.0 | 6.0 | 0.00 | 0.00 | 0.00 | 89 | 1016.2 |
| 20260901105514 | 73 | 227 | 3.0 | 6.0 | 0.00 | 0.00 | 0.00 | 89 | 1016.1 |
| 20260901105008 | 73 | 203 | 2.0 | 6.0 | 0.00 | 0.00 | 0.00 | 89 | 1016.2 |
| 20260901104550 | 0 | 134 | 0.0 | 1.0 | 0.00 | 0.00 | 0.00 | 1015.7 | |
| 20260901104527 | 73 | 198 | 2.0 | 7.0 | 0.00 | 0.00 | 0.00 | 89 | 1016.2 |
| 20260901104012 | 73 | 197 | 2.0 | 7.0 | 0.00 | 0.00 | 0.00 | 89 | 1016.2 |
| 20260901103511 | 73 | 202 | 2.0 | 6.0 | 0.00 | 0.00 | 0.00 | 89 | 1016.2 |
| 20260901103048 | 74 | 124 | 0.0 | 1.0 | 0.00 | 0.00 | 0.00 | 58 | 1015.6 |
| 20260901103004 | 73 | 186 | 2.0 | 6.0 | 0.00 | 0.00 | 0.00 | 88 | 1016.3 |
| 20260901102504 | 73 | 204 | 3.0 | 6.0 | 0.00 | 0.00 | 0.00 | 88 | 1016.3 |
| 20260901102002 | 73 | 189 | 1.0 | 5.0 | 0.00 | 0.00 | 0.00 | 88 | 1016.2 |
| 20260901101601 | 75 | 121 | 0.0 | 1.0 | 0.00 | 0.00 | 0.00 | 57 | 1015.6 |
| 20260901101507 | 73 | 192 | 0.0 | 6.0 | 0.00 | 0.00 | 0.00 | 88 | 1016.2 |
| 20260901101005 | 73 | 209 | 1.0 | 6.0 | 0.00 | 0.00 | 0.00 | 88 | 1016.1 |
| 20260901100504 | 74 | 205 | 2.0 | 7.0 | 0.00 | 0.00 | 0.00 | 88 | 1016.1 |
| 20260901100038 | 75 | 120 | 0.0 | 1.0 | 0.00 | 0.00 | 0.00 | 56 | 1015.6 |
| 20260901100012 | 74 | 194 | 2.0 | 7.0 | 0.00 | 0.00 | 0.00 | 88 | 1016.0 |
| 20260901095512 | 74 | 196 | 2.0 | 8.0 | 0.00 | 0.00 | 0.00 | 88 | 1016.0 |
| 20260901095008 | 74 | 202 | 2.0 | 8.0 | 0.00 | 0.00 | 0.00 | 88 | 1016.0 |
| 20260901094538 | 75 | 120 | 0.0 | 0.0 | 0.00 | 0.00 | 0.00 | 55 | 1015.5 |
| 20260901094519 | 74 | 254 | 1.0 | 6.0 | 0.00 | 0.00 | 0.00 | 88 | 1016.0 |
| 20260901094011 | 74 | 229 | 3.0 | 6.0 | 0.00 | 0.00 | 0.00 | 88 | 1016.0 |
| 20260901093512 | 74 | 207 | 2.0 | 5.0 | 0.00 | 0.00 | 0.00 | 88 | 1016.0 |
| 20260901093030 | 75 | 120 | 0.0 | 0.0 | 0.00 | 0.00 | 0.00 | 53 | 1015.6 |
| 20260901093026 | 74 | 187 | 1.0 | 5.0 | 0.00 | 0.00 | 0.00 | 88 | 1016.0 |
| 20260901092515 | 74 | 207 | 1.0 | 6.0 | 0.00 | 0.00 | 0.00 | 88 | 1016.0 |
| 20260901092003 | 74 | 199 | 1.0 | 6.0 | 0.00 | 0.00 | 0.00 | 88 | 1016.0 |
| 20260901091525 | 76 | 120 | 0.0 | 0.0 | 0.00 | 0.00 | 0.00 | 51 | 1015.7 |
| 20260901091505 | 74 | 219 | 1.0 | 6.0 | 0.00 | 0.00 | 0.00 | 88 | 1016.0 |
| 20260901091003 | 74 | 206 | 2.0 | 6.0 | 0.00 | 0.00 | 0.00 | 88 | 1016.0 |
| 20260901090503 | 74 | 192 | 1.0 | 6.0 | 0.00 | 0.00 | 0.00 | 88 | 1016.1 |
| 20260901090021 | 77 | 120 | 0.0 | 0.0 | 0.00 | 0.00 | 0.00 | 47 | 1015.8 |
| 20260901090011 | 74 | 223 | 1.0 | 6.0 | 0.00 | 0.00 | 0.00 | 88 | 1016.0 |
| 20260901085506 | 74 | 202 | 2.0 | 6.0 | 0.00 | 0.00 | 0.00 | 87 | 1016.0 |
| 20260901085007 | 74 | 204 | 2.0 | 6.0 | 0.00 | 0.01 | 0.00 | 87 | 1016.0 |
| 20260901084518 | 78 | 120 | 0.0 | 1.0 | 0.00 | 0.00 | 0.00 | 47 | 1015.6 |
| 20260901084009 | 74 | 185 | 1.0 | 5.0 | 0.00 | 0.01 | 0.00 | 87 | 1016.0 |
| 20260901083512 | 74 | 199 | 0.0 | 4.0 | 0.00 | 0.01 | 0.00 | 87 | 1016.1 |
| 20260901083033 | 74 | 190 | 0.0 | 4.0 | 0.00 | 0.01 | 0.00 | 87 | 1016.1 |
| 20260901083018 | 78 | 120 | 0.0 | 4.0 | 0.00 | 0.00 | 0.00 | 47 | 1015.5 |
| 20260901082512 | 74 | 188 | 1.0 | 4.0 | 0.00 | 0.01 | 0.00 | 87 | 1016.0 |
| 20260901082014 | 74 | 211 | 1.0 | 4.0 | 0.00 | 0.01 | 0.00 | 87 | 1016.0 |
| 20260901081612 | 78 | 121 | 2.0 | 4.0 | 0.00 | 0.00 | 0.00 | 46 | 1015.5 |
| 20260901081525 | 74 | 186 | 0.0 | 4.0 | 0.00 | 0.01 | 0.00 | 86 | 1016.0 |
| 20260901081003 | 74 | 197 | 1.0 | 4.0 | 0.00 | 0.01 | 0.00 | 86 | 1015.9 |
| 20260901080504 | 74 | 217 | 1.0 | 4.0 | 0.00 | 0.01 | 0.00 | 86 | 1015.9 |
| 20260901080009 | 78 | 124 | 1.0 | 3.0 | 0.00 | 0.00 | 0.00 | 43 | 1015.5 |
| 20260901075505 | 74 | 231 | 1.0 | 4.0 | 0.00 | 0.01 | 0.00 | 86 | 1015.7 |
| 20260901075007 | 74 | 176 | 0.0 | 5.0 | 0.00 | 0.01 | 0.00 | 86 | 1015.8 |
| 20260901074519 | 75 | 249 | 2.0 | 5.0 | 0.00 | 0.01 | 0.00 | 86 | 1015.6 |
| 20260901074504 | 79 | 124 | 0.0 | 4.0 | 0.00 | 0.00 | 0.00 | 43 | 1015.3 |
| 20260901074008 | 75 | 182 | 2.0 | 5.0 | 0.00 | 0.01 | 0.00 | 85 | 1015.6 |
| 20260901073509 | 75 | 201 | 2.0 | 5.0 | 0.00 | 0.01 | 0.00 | 85 | 1015.6 |
| 20260901073032 | 75 | 223 | 1.0 | 4.0 | 0.00 | 0.01 | 0.00 | 85 | 1015.5 |
| 20260901073001 | 79 | 119 | 3.0 | 4.0 | 0.00 | 0.00 | 0.00 | 42 | 1015.3 |
| 20260901072510 | 75 | 189 | 1.0 | 4.0 | 0.00 | 0.01 | 0.00 | 85 | 1015.6 |
| 20260901072010 | 75 | 218 | 1.0 | 4.0 | 0.00 | 0.01 | 0.00 | 85 | 1015.7 |
| 20260901071600 | 79 | 120 | 2.0 | 4.0 | 0.00 | 0.00 | 0.00 | 41 | 1015.3 |
| 20260901071523 | 75 | 207 | 0.0 | 5.0 | 0.00 | 0.01 | 0.00 | 85 | 1015.7 |
| 20260901071013 | 75 | 205 | 0.0 | 5.0 | 0.00 | 0.01 | 0.00 | 85 | 1015.5 |
| 20260901070513 | 75 | 187 | 1.0 | 8.0 | 0.00 | 0.01 | 0.00 | 85 | 1015.5 |
| 20260901070107 | 79 | 121 | 3.0 | 4.0 | 0.00 | 0.00 | 0.00 | 40 | 1015.2 |
| 20260901070029 | 75 | 186 | 2.0 | 8.0 | 0.00 | 0.01 | 0.00 | 85 | 1015.4 |
| 20260901065504 | 75 | 243 | 2.0 | 6.0 | 0.00 | 0.01 | 0.00 | 85 | 1015.4 |
| 20260901065006 | 75 | 180 | 2.0 | 6.0 | 0.00 | 0.01 | 0.00 | 85 | 1015.5 |
| 20260901064556 | 80 | 120 | 2.0 | 5.0 | 0.00 | 0.00 | 0.00 | 39 | 1015.3 |
| 20260901064513 | 75 | 171 | 2.0 | 6.0 | 0.00 | 0.01 | 0.00 | 84 | 1015.4 |
| 20260901064006 | 75 | 196 | 2.0 | 5.0 | 0.00 | 0.01 | 0.00 | 84 | 1015.4 |
| 20260901063507 | 76 | 211 | 2.0 | 7.0 | 0.00 | 0.01 | 0.00 | 84 | 1015.4 |
| 20260901063107 | 79 | 120 | 0.0 | 6.0 | 0.00 | 0.00 | 0.00 | 42 | 1015.1 |
| 20260901063016 | 76 | 197 | 2.0 | 7.0 | 0.00 | 0.01 | 0.00 | 84 | 1015.4 |
| 20260901062511 | 76 | 225 | 2.0 | 7.0 | 0.00 | 0.01 | 0.00 | 83 | 1015.4 |
| 20260901062010 | 76 | 253 | 2.0 | 7.0 | 0.00 | 0.01 | 0.00 | 83 | 1015.4 |
| 20260901061551 | 79 | 115 | 0.0 | 3.0 | 0.00 | 0.00 | 0.00 | 41 | 1015.0 |
| 20260901061524 | 76 | 196 | 2.0 | 7.0 | 0.00 | 0.01 | 0.00 | 83 | 1015.4 |
| 20260901061014 | 76 | 249 | 3.0 | 8.0 | 0.00 | 0.01 | 0.00 | 83 | 1015.4 |
| 20260901060512 | 76 | 198 | 2.0 | 8.0 | 0.00 | 0.01 | 0.00 | 82 | 1015.5 |
| 20260901060044 | 80 | 133 | 0.0 | 1.0 | 0.00 | 0.00 | 0.00 | 38 | 1014.8 |
| 20260901060031 | 77 | 179 | 3.0 | 8.0 | 0.00 | 0.01 | 0.00 | 82 | 1015.5 |
| 20260901055515 | 77 | 254 | 1.0 | 7.0 | 0.00 | 0.01 | 0.00 | 82 | 1015.5 |
| 20260901055014 | 77 | 246 | 3.0 | 7.0 | 0.00 | 0.01 | 0.00 | 81 | 1015.5 |
| 20260901054540 | 81 | 127 | 1.0 | 6.0 | 0.00 | 0.00 | 0.00 | 37 | 1014.8 |
| 20260901054510 | 77 | 192 | 2.0 | 7.0 | 0.00 | 0.01 | 0.00 | 81 | 1015.5 |
| 20260901054006 | 77 | 211 | 1.0 | 7.0 | 0.00 | 0.01 | 0.00 | 81 | 1015.6 |
| 20260901053506 | 77 | 213 | 3.0 | 10.0 | 0.00 | 0.01 | 0.00 | 81 | 1015.6 |
| 20260901053049 | 80 | 108 | 0.0 | 3.0 | 0.00 | 0.00 | 0.00 | 38 | 1014.5 |
| 20260901053012 | 77 | 292 | 1.0 | 10.0 | 0.00 | 0.01 | 0.00 | 81 | 1015.7 |
| 20260901052508 | 78 | 187 | 3.0 | 8.0 | 0.00 | 0.01 | 0.00 | 80 | 1015.7 |
| 20260901052007 | 78 | 209 | 3.0 | 6.0 | 0.00 | 0.01 | 0.00 | 80 | 1015.7 |
| 20260901051549 | 80 | 122 | 0.0 | 1.0 | 0.00 | 0.00 | 0.00 | 38 | 1014.5 |
| 20260901051520 | 78 | 200 | 2.0 | 6.0 | 0.00 | 0.01 | 0.00 | 80 | 1015.6 |
| 20260901051012 | 78 | 213 | 2.0 | 10.0 | 0.00 | 0.01 | 0.00 | 80 | 1015.7 |
| 20260901050512 | 78 | 172 | 2.0 | 10.0 | 0.00 | 0.01 | 0.00 | 79 | 1015.5 |
| 20260901050029 | 81 | 122 | 0.0 | 1.0 | 0.00 | 0.00 | 0.00 | 38 | 1014.3 |
| 20260901050025 | 78 | 222 | 2.0 | 7.0 | 0.00 | 0.01 | 0.00 | 79 | 1015.4 |
| 20260901045515 | 78 | 220 | 1.0 | 9.0 | 0.00 | 0.01 | 0.01 | 79 | 1015.4 |
| 20260901045014 | 79 | 173 | 3.0 | 10.0 | 0.00 | 0.01 | 0.01 | 79 | 1015.5 |
| 20260901044533 | 81 | 122 | 0.0 | 1.0 | 0.00 | 0.00 | 0.00 | 38 | 1014.4 |
| 20260901044015 | 79 | 232 | 5.0 | 9.0 | 0.00 | 0.01 | 0.01 | 78 | 1015.7 |
| 20260901043516 | 79 | 216 | 3.0 | 9.0 | 0.00 | 0.01 | 0.01 | 78 | 1015.7 |
| 20260901043032 | 82 | 122 | 0.0 | 1.0 | 0.00 | 0.00 | 0.00 | 37 | 1014.4 |
| 20260901043012 | 79 | 234 | 4.0 | 9.0 | 0.00 | 0.01 | 0.01 | 78 | 1015.7 |
| 20260901042509 | 79 | 200 | 4.0 | 10.0 | 0.00 | 0.01 | 0.01 | 77 | 1015.6 |
| 20260901042007 | 79 | 206 | 4.0 | 12.0 | 0.00 | 0.01 | 0.01 | 77 | 1015.6 |
| 20260901041545 | 82 | 122 | 0.0 | 1.0 | 0.00 | 0.00 | 0.00 | 37 | 1014.2 |
| 20260901041523 | 80 | 192 | 4.0 | 12.0 | 0.00 | 0.01 | 0.01 | 77 | 1015.6 |
| 20260901041009 | 80 | 194 | 4.0 | 12.0 | 0.00 | 0.01 | 0.01 | 77 | 1015.6 |
| 20260901040511 | 80 | 236 | 3.0 | 8.0 | 0.00 | 0.01 | 0.01 | 77 | 1015.8 |
| 20260901040025 | 80 | 202 | 4.0 | 8.0 | 0.00 | 0.01 | 0.01 | 76 | 1015.6 |
| 20260901040021 | 83 | 122 | 0.0 | 0.0 | 0.00 | 0.00 | 0.00 | 36 | 1014.3 |
| 20260901035516 | 80 | 210 | 2.0 | 8.0 | 0.00 | 0.01 | 0.01 | 76 | 1015.5 |
| 20260901035007 | 80 | 159 | 2.0 | 8.0 | 0.00 | 0.01 | 0.01 | 76 | 1015.7 |
| 20260901034519 | 84 | 122 | 0.0 | 1.0 | 0.00 | 0.00 | 0.00 | 35 | 1014.2 |
| 20260901034510 | 81 | 194 | 4.0 | 8.0 | 0.00 | 0.01 | 0.01 | 76 | 1015.5 |
| 20260901034007 | 81 | 196 | 3.0 | 10.0 | 0.00 | 0.01 | 0.01 | 75 | 1015.6 |
| 20260901033503 | 81 | 172 | 4.0 | 10.0 | 0.00 | 0.01 | 0.01 | 75 | 1015.7 |
| 20260901033018 | 84 | 122 | 0.0 | 1.0 | 0.00 | 0.00 | 0.00 | 35 | 1014.2 |
| 20260901033008 | 81 | 226 | 3.0 | 11.0 | 0.00 | 0.01 | 0.01 | 75 | 1015.7 |
| 20260901032506 | 81 | 211 | 5.0 | 11.0 | 0.00 | 0.01 | 0.01 | 74 | 1015.7 |
| 20260901032009 | 81 | 202 | 4.0 | 9.0 | 0.00 | 0.01 | 0.01 | 74 | 1015.6 |
| 20260901031531 | 81 | 202 | 3.0 | 7.0 | 0.00 | 0.01 | 0.01 | 74 | 1015.7 |
| 20260901031516 | 84 | 122 | 0.0 | 0.0 | 0.00 | 0.00 | 0.00 | 34 | 1014.1 |
| 20260901031009 | 81 | 207 | 2.0 | 11.0 | 0.00 | 0.01 | 0.01 | 74 | 1015.7 |
| 20260901030513 | 81 | 201 | 4.0 | 11.0 | 0.00 | 0.01 | 0.01 | 74 | 1015.7 |
| 20260901030023 | 82 | 208 | 3.0 | 8.0 | 0.00 | 0.01 | 0.01 | 74 | 1015.8 |
| 20260901030014 | 86 | 122 | 0.0 | 1.0 | 0.00 | 0.00 | 0.00 | 31 | 1014.0 |
| 20260901025511 | 82 | 206 | 2.0 | 8.0 | 0.00 | 0.01 | 0.01 | 74 | 1015.7 |
| 20260901025011 | 82 | 202 | 2.0 | 6.0 | 0.00 | 0.01 | 0.01 | 74 | 1015.7 |
| 20260901024527 | 82 | 179 | 2.0 | 6.0 | 0.00 | 0.01 | 0.01 | 74 | 1015.7 |
| 20260901024512 | 86 | 122 | 0.0 | 2.0 | 0.00 | 0.00 | 0.00 | 31 | 1013.8 |
| 20260901024016 | 82 | 209 | 2.0 | 6.0 | 0.00 | 0.01 | 0.01 | 73 | 1015.6 |
| 20260901023502 | 82 | 196 | 3.0 | 6.0 | 0.00 | 0.01 | 0.01 | 73 | 1015.6 |
| 20260901023011 | 87 | 122 | 0.0 | 0.0 | 0.00 | 0.00 | 0.00 | 30 | 1013.6 |
| 20260901023006 | 82 | 200 | 2.0 | 7.0 | 0.00 | 0.01 | 0.01 | 73 | 1015.6 |
| 20260901022502 | 83 | 217 | 3.0 | 8.0 | 0.00 | 0.01 | 0.01 | 73 | 1015.7 |
| 20260901022007 | 83 | 238 | 3.0 | 8.0 | 0.00 | 0.01 | 0.01 | 72 | 1015.7 |
| 20260901021515 | 88 | 122 | 0.0 | 2.0 | 0.00 | 0.00 | 0.00 | 29 | 1013.6 |
| 20260901021512 | 83 | 185 | 3.0 | 7.0 | 0.00 | 0.01 | 0.01 | 72 | 1015.7 |
| 20260901021008 | 83 | 198 | 3.0 | 8.0 | 0.00 | 0.01 | 0.01 | 72 | 1015.7 |
| 20260901020510 | 83 | 138 | 2.0 | 8.0 | 0.00 | 0.01 | 0.01 | 72 | 1015.7 |
| 20260901020016 | 83 | 158 | 1.0 | 4.0 | 0.00 | 0.01 | 0.01 | 73 | 1015.7 |
| 20260901020009 | 89 | 122 | 0.0 | 2.0 | 0.00 | 0.00 | 0.00 | 27 | 1013.4 |
| 20260901015511 | 83 | 165 | 0.0 | 4.0 | 0.00 | 0.01 | 0.01 | 73 | 1015.7 |
| 20260901015015 | 83 | 147 | 1.0 | 4.0 | 0.00 | 0.01 | 0.01 | 73 | 1015.7 |
| 20260901014524 | 83 | 144 | 1.0 | 4.0 | 0.00 | 0.01 | 0.01 | 73 | 1015.7 |
| 20260901014513 | 90 | 120 | 0.0 | 2.0 | 0.00 | 0.00 | 0.00 | 26 | 1013.2 |
| 20260901014015 | 83 | 162 | 0.0 | 2.0 | 0.00 | 0.01 | 0.01 | 73 | 1015.7 |
| 20260901013519 | 84 | 131 | 0.0 | 5.0 | 0.00 | 0.01 | 0.01 | 72 | 1015.7 |
| 20260901013027 | 84 | 77 | 0.0 | 5.0 | 0.00 | 0.01 | 0.01 | 73 | 1015.6 |
| 20260901013003 | 91 | 120 | 1.0 | 3.0 | 0.00 | 0.00 | 0.00 | 25 | 1013.1 |
| 20260901012506 | 84 | 180 | 0.0 | 4.0 | 0.00 | 0.01 | 0.01 | 73 | 1015.7 |
| 20260901012004 | 84 | 167 | 0.0 | 3.0 | 0.00 | 0.01 | 0.01 | 73 | 1015.8 |
| 20260901011509 | 84 | 159 | 0.0 | 2.0 | 0.00 | 0.01 | 0.01 | 73 | 1015.7 |
| 20260901011500 | 92 | 124 | 1.0 | 5.0 | 0.00 | 0.00 | 0.00 | 23 | 1013.0 |
| 20260901011004 | 84 | 184 | 0.0 | 2.0 | 0.00 | 0.01 | 0.01 | 73 | 1015.8 |
| 20260901010507 | 84 | 172 | 0.0 | 3.0 | 0.00 | 0.01 | 0.01 | 73 | 1015.8 |
| 20260901010058 | 94 | 108 | 2.0 | 6.0 | 0.00 | 0.00 | 0.00 | 21 | 1013.0 |
| 20260901010030 | 84 | 195 | 0.0 | 3.0 | 0.00 | 0.01 | 0.01 | 73 | 1015.7 |
| 20260901005508 | 84 | 126 | 0.0 | 3.0 | 0.00 | 0.01 | 0.01 | 73 | 1015.6 |
| 20260901005011 | 84 | 112 | 2.0 | 3.0 | 0.00 | 0.01 | 0.01 | 73 | 1015.6 |
| 20260901004555 | 95 | 120 | 3.0 | 7.0 | 0.00 | 0.00 | 0.00 | 20 | 1012.9 |
| 20260901004523 | 85 | 97 | 2.0 | 3.0 | 0.00 | 0.01 | 0.01 | 72 | 1015.6 |
| 20260901004011 | 85 | 107 | 1.0 | 2.0 | 0.00 | 0.01 | 0.01 | 72 | 1015.7 |
| 20260901003512 | 85 | 214 | 0.0 | 2.0 | 0.00 | 0.01 | 0.01 | 71 | 1015.8 |
| 20260901003053 | 96 | 134 | 4.0 | 11.0 | 0.00 | 0.00 | 0.00 | 19 | 1012.8 |
| 20260901003027 | 85 | 239 | 0.0 | 1.0 | 0.00 | 0.01 | 0.01 | 69 | 1015.8 |
| 20260901002512 | 86 | 250 | 0.0 | 1.0 | 0.00 | 0.01 | 0.01 | 69 | 1015.9 |
| 20260901002019 | 86 | 250 | 0.0 | 1.0 | 0.00 | 0.01 | 0.01 | 69 | 1016.0 |
| 20260901001557 | 96 | 108 | 7.0 | 12.0 | 0.00 | 0.00 | 0.00 | 18 | 1012.8 |
| 20260901001513 | 86 | 250 | 0.0 | 1.0 | 0.00 | 0.01 | 0.01 | 68 | 1016.1 |
| 20260901001003 | 86 | 250 | 0.0 | 2.0 | 0.00 | 0.01 | 0.01 | 67 | 1016.1 |
| 20260901000504 | 86 | 260 | 0.0 | 3.0 | 0.00 | 0.01 | 0.01 | 67 | 1015.9 |
| 20260901000051 | 97 | 107 | 7.0 | 12.0 | 0.00 | 0.00 | 0.00 | 18 | 1012.8 |
| 20260901000015 | 86 | 247 | 0.0 | 6.0 | 0.00 | 0.01 | 0.01 | 67 | 1015.7 |
| 20260831235508 | 87 | 209 | 1.0 | 6.0 | 0.00 | 0.01 | 0.01 | 67 | 1015.5 |
| 20260831235008 | 87 | 215 | 0.0 | 5.0 | 0.00 | 0.01 | 0.01 | 66 | 1015.3 |
| 20260831234604 | 97 | 114 | 5.0 | 10.0 | 0.00 | 0.00 | 0.00 | 18 | 1012.9 |
| 20260831234517 | 87 | 211 | 0.0 | 5.0 | 0.00 | 0.01 | 0.01 | 66 | 1015.3 |
| 20260831234009 | 87 | 207 | 1.0 | 6.0 | 0.00 | 0.01 | 0.01 | 66 | 1015.3 |
| 20260831233514 | 87 | 196 | 1.0 | 8.0 | 0.00 | 0.01 | 0.01 | 66 | 1015.3 |
| 20260831233048 | 98 | 129 | 5.0 | 10.0 | 0.00 | 0.00 | 0.00 | 17 | 1012.9 |
| 20260831233023 | 87 | 213 | 3.0 | 8.0 | 0.00 | 0.01 | 0.01 | 65 | 1015.3 |
| 20260831232513 | 88 | 171 | 0.0 | 7.0 | 0.00 | 0.01 | 0.01 | 65 | 1015.3 |
| 20260831232013 | 88 | 183 | 1.0 | 7.0 | 0.00 | 0.01 | 0.01 | 65 | 1015.3 |
| 20260831231542 | 99 | 101 | 9.0 | 14.0 | 0.00 | 0.00 | 0.00 | 17 | 1012.9 |
| 20260831231534 | 88 | 221 | 2.0 | 7.0 | 0.00 | 0.01 | 0.01 | 65 | 1015.2 |
| 20260831231016 | 88 | 210 | 2.0 | 7.0 | 0.00 | 0.01 | 0.01 | 64 | 1015.2 |
| 20260831230516 | 89 | 214 | 1.0 | 6.0 | 0.00 | 0.01 | 0.01 | 63 | 1015.2 |
| 20260831230039 | 101 | 153 | 0.0 | 5.0 | 0.00 | 0.00 | 0.00 | 17 | 1012.9 |
| 20260831230013 | 89 | 302 | 1.0 | 8.0 | 0.00 | 0.01 | 0.01 | 63 | 1015.0 |
| 20260831225505 | 89 | 171 | 3.0 | 10.0 | 0.00 | 0.01 | 0.01 | 62 | 1014.9 |
| 20260831225009 | 90 | 243 | 2.0 | 10.0 | 0.00 | 0.01 | 0.01 | 61 | 1014.7 |
| 20260831224537 | 101 | 117 | 4.0 | 9.0 | 0.00 | 0.00 | 0.00 | 17 | 1012.9 |
| 20260831224514 | 90 | 234 | 4.0 | 10.0 | 0.00 | 0.01 | 0.01 | 60 | 1014.7 |
| 20260831224008 | 91 | 184 | 2.0 | 10.0 | 0.00 | 0.01 | 0.01 | 61 | 1014.7 |
| 20260831223509 | 91 | 197 | 2.0 | 8.0 | 0.00 | 0.01 | 0.01 | 61 | 1014.7 |
| 20260831223033 | 100 | 155 | 1.0 | 7.0 | 0.00 | 0.00 | 0.00 | 19 | 1013.0 |
| 20260831223021 | 91 | 182 | 4.0 | 11.0 | 0.00 | 0.01 | 0.01 | 62 | 1014.6 |
| 20260831222514 | 91 | 206 | 3.0 | 13.0 | 0.00 | 0.01 | 0.01 | 61 | 1014.7 |
| 20260831221533 | 98 | 103 | 2.0 | 11.0 | 0.00 | 0.00 | 0.00 | 22 | 1013.0 |
| 20260831221014 | 92 | 142 | 3.0 | 10.0 | 0.00 | 0.01 | 0.01 | 60 | 1014.6 |
| 20260831220514 | 92 | 241 | 3.0 | 14.0 | 0.00 | 0.01 | 0.01 | 59 | 1014.6 |
| 20260831220027 | 96 | 138 | 5.0 | 12.0 | 0.00 | 0.00 | 0.00 | 21 | 1013.1 |
| 20260831215517 | 92 | 221 | 2.0 | 10.0 | 0.00 | 0.01 | 0.01 | 58 | 1014.5 |
| 20260831215005 | 92 | 198 | 4.0 | 12.0 | 0.00 | 0.01 | 0.01 | 56 | 1014.4 |
| 20260831214524 | 97 | 124 | 9.0 | 14.0 | 0.00 | 0.00 | 0.00 | 21 | 1013.1 |
| 20260831214512 | 93 | 240 | 3.0 | 15.0 | 0.00 | 0.01 | 0.01 | 56 | 1014.4 |
| 20260831214006 | 93 | 208 | 6.0 | 15.0 | 0.00 | 0.01 | 0.01 | 56 | 1014.4 |
| 20260831213509 | 93 | 166 | 7.0 | 15.0 | 0.00 | 0.01 | 0.01 | 57 | 1014.5 |
| 20260831213021 | 98 | 110 | 11.0 | 17.0 | 0.00 | 0.00 | 0.00 | 21 | 1013.3 |
| 20260831213017 | 93 | 183 | 6.0 | 13.0 | 0.00 | 0.01 | 0.01 | 57 | 1014.6 |
| 20260831212511 | 93 | 317 | 6.0 | 13.0 | 0.00 | 0.01 | 0.01 | 55 | 1014.5 |
| 20260831212012 | 93 | 207 | 3.0 | 12.0 | 0.00 | 0.01 | 0.01 | 56 | 1014.3 |
| 20260831211523 | 93 | 189 | 3.0 | 11.0 | 0.00 | 0.01 | 0.01 | 56 | 1014.3 |
| 20260831211520 | 98 | 101 | 8.0 | 16.0 | 0.00 | 0.00 | 0.00 | 20 | 1013.5 |
| 20260831211012 | 93 | 196 | 5.0 | 18.0 | 0.00 | 0.01 | 0.01 | 55 | 1014.3 |
| 20260831210515 | 93 | 173 | 8.0 | 20.0 | 0.00 | 0.01 | 0.01 | 54 | 1014.2 |
| 20260831210029 | 93 | 214 | 7.0 | 20.0 | 0.00 | 0.01 | 0.01 | 54 | 1014.2 |
| 20260831210019 | 98 | 111 | 5.0 | 16.0 | 0.00 | 0.00 | 0.00 | 21 | 1013.7 |
| 20260831205516 | 93 | 165 | 4.0 | 14.0 | 0.00 | 0.01 | 0.01 | 54 | 1014.2 |
| 20260831205016 | 93 | 180 | 7.0 | 15.0 | 0.00 | 0.01 | 0.01 | 53 | 1014.2 |
| 20260831204529 | 94 | 204 | 6.0 | 20.0 | 0.00 | 0.01 | 0.01 | 53 | 1014.3 |
| 20260831204519 | 98 | 91 | 11.0 | 16.0 | 0.00 | 0.00 | 0.00 | 20 | 1013.8 |
| 20260831204018 | 94 | 196 | 9.0 | 20.0 | 0.00 | 0.01 | 0.01 | 53 | 1014.3 |
| 20260831203506 | 94 | 247 | 5.0 | 17.0 | 0.00 | 0.01 | 0.01 | 53 | 1014.3 |
| 20260831203015 | 99 | 179 | 6.0 | 17.0 | 0.00 | 0.00 | 0.00 | 20 | 1014.2 |
| 20260831202507 | 94 | 205 | 5.0 | 18.0 | 0.00 | 0.01 | 0.01 | 54 | 1014.5 |
| 20260831202011 | 94 | 188 | 4.0 | 15.0 | 0.00 | 0.01 | 0.01 | 54 | 1014.5 |
| 20260831201525 | 94 | 232 | 4.0 | 15.0 | 0.00 | 0.01 | 0.01 | 52 | 1014.5 |
| 20260831201509 | 99 | 117 | 8.0 | 16.0 | 0.00 | 0.00 | 0.00 | 20 | 1014.3 |
| 20260831201016 | 94 | 229 | 5.0 | 12.0 | 0.00 | 0.01 | 0.01 | 54 | 1014.5 |
| 20260831200512 | 93 | 100 | 6.0 | 16.0 | 0.00 | 0.01 | 0.01 | 54 | 1014.6 |
| 20260831200028 | 93 | 208 | 5.0 | 16.0 | 0.00 | 0.01 | 0.01 | 53 | 1014.6 |
| 20260831200011 | 99 | 132 | 2.0 | 14.0 | 0.00 | 0.00 | 0.00 | 21 | 1014.4 |
| 20260831195513 | 93 | 266 | 7.0 | 22.0 | 0.00 | 0.01 | 0.01 | 52 | 1014.6 |
| 20260831195016 | 93 | 186 | 8.0 | 22.0 | 0.00 | 0.01 | 0.01 | 52 | 1014.8 |
| 20260831194558 | 93 | 188 | 8.0 | 20.0 | 0.00 | 0.01 | 0.01 | 53 | 1014.7 |
| 20260831194505 | 97 | 117 | 10.0 | 16.0 | 0.00 | 0.00 | 0.00 | 20 | 1014.6 |
| 20260831194019 | 93 | 251 | 6.0 | 16.0 | 0.00 | 0.01 | 0.01 | 53 | 1014.9 |
| 20260831193518 | 93 | 186 | 5.0 | 14.0 | 0.00 | 0.01 | 0.01 | 54 | 1014.9 |
| 20260831193032 | 92 | 200 | 8.0 | 18.0 | 0.00 | 0.01 | 0.01 | 54 | 1014.9 |
| 20260831193001 | 97 | 193 | 3.0 | 11.0 | 0.00 | 0.00 | 0.00 | 21 | 1014.7 |
| 20260831192507 | 92 | 203 | 6.0 | 19.0 | 0.00 | 0.01 | 0.01 | 54 | 1014.9 |
| 20260831192009 | 92 | 294 | 9.0 | 19.0 | 0.00 | 0.01 | 0.01 | 53 | 1015.1 |
| 20260831191559 | 99 | 99 | 7.0 | 18.0 | 0.00 | 0.00 | 0.00 | 21 | 1014.9 |
| 20260831191520 | 92 | 148 | 6.0 | 15.0 | 0.00 | 0.01 | 0.01 | 54 | 1015.2 |
| 20260831191011 | 92 | 178 | 5.0 | 18.0 | 0.00 | 0.01 | 0.01 | 56 | 1015.3 |
| 20260831190512 | 92 | 196 | 6.0 | 18.0 | 0.00 | 0.01 | 0.01 | 56 | 1015.4 |
| 20260831190056 | 98 | 137 | 1.0 | 12.0 | 0.00 | 0.00 | 0.00 | 23 | 1015.0 |
| 20260831190023 | 92 | 234 | 9.0 | 21.0 | 0.00 | 0.01 | 0.01 | 55 | 1015.4 |
| 20260831185514 | 91 | 188 | 3.0 | 21.0 | 0.00 | 0.01 | 0.01 | 55 | 1015.4 |
| 20260831185015 | 91 | 305 | 7.0 | 16.0 | 0.00 | 0.01 | 0.01 | 56 | 1015.3 |
| 20260831184554 | 99 | 124 | 6.0 | 17.0 | 0.00 | 0.00 | 0.00 | 24 | 1015.1 |
| 20260831184541 | 91 | 244 | 7.0 | 15.0 | 0.00 | 0.01 | 0.01 | 55 | 1015.5 |
| 20260831184015 | 91 | 200 | 5.0 | 15.0 | 0.00 | 0.01 | 0.01 | 56 | 1015.7 |
| 20260831183517 | 91 | 168 | 5.0 | 17.0 | 0.00 | 0.01 | 0.01 | 58 | 1015.8 |
| 20260831183052 | 98 | 156 | 3.0 | 14.0 | 0.00 | 0.00 | 0.00 | 25 | 1015.3 |
| 20260831183030 | 90 | 214 | 5.0 | 17.0 | 0.00 | 0.01 | 0.01 | 57 | 1015.9 |
| 20260831182517 | 90 | 204 | 5.0 | 15.0 | 0.00 | 0.01 | 0.01 | 57 | 1016.0 |
| 20260831182015 | 90 | 213 | 5.0 | 16.0 | 0.00 | 0.01 | 0.01 | 57 | 1015.9 |
| 20260831181553 | 98 | 122 | 3.0 | 12.0 | 0.00 | 0.00 | 0.00 | 23 | 1015.5 |
| 20260831181535 | 90 | 178 | 6.0 | 16.0 | 0.00 | 0.01 | 0.01 | 57 | 1015.9 |
| 20260831181007 | 90 | 223 | 6.0 | 12.0 | 0.00 | 0.01 | 0.01 | 59 | 1016.0 |
| 20260831180510 | 90 | 209 | 5.0 | 14.0 | 0.00 | 0.01 | 0.01 | 58 | 1016.3 |
| 20260831180052 | 96 | 111 | 9.0 | 17.0 | 0.00 | 0.00 | 0.00 | 25 | 1015.7 |
| 20260831180024 | 90 | 267 | 4.0 | 14.0 | 0.00 | 0.01 | 0.01 | 58 | 1016.4 |
| 20260831175511 | 89 | 199 | 3.0 | 15.0 | 0.00 | 0.01 | 0.01 | 58 | 1016.5 |
| 20260831175012 | 89 | 200 | 4.0 | 15.0 | 0.00 | 0.01 | 0.01 | 56 | 1016.5 |
| 20260831174545 | 97 | 156 | 4.0 | 11.0 | 0.00 | 0.00 | 0.00 | 26 | 1016.2 |
| 20260831174543 | 89 | 261 | 5.0 | 11.0 | 0.00 | 0.01 | 0.01 | 58 | 1016.5 |
| 20260831174017 | 89 | 190 | 4.0 | 14.0 | 0.00 | 0.01 | 0.01 | 60 | 1016.7 |
| 20260831173514 | 88 | 228 | 5.0 | 14.0 | 0.00 | 0.01 | 0.01 | 60 | 1016.7 |
| 20260831173042 | 100 | 150 | 0.0 | 4.0 | 0.00 | 0.00 | 0.00 | 25 | 1016.5 |
| 20260831173029 | 88 | 227 | 4.0 | 12.0 | 0.00 | 0.01 | 0.01 | 60 | 1016.7 |
| 20260831172516 | 88 | 173 | 6.0 | 12.0 | 0.00 | 0.01 | 0.01 | 61 | 1016.7 |
| 20260831172017 | 88 | 215 | 4.0 | 10.0 | 0.00 | 0.01 | 0.01 | 61 | 1016.8 |
| 20260831171541 | 88 | 218 | 4.0 | 10.0 | 0.00 | 0.01 | 0.01 | 59 | 1017.0 |
| 20260831171535 | 98 | 219 | 0.0 | 6.0 | 0.00 | 0.00 | 0.00 | 28 | 1016.6 |
| 20260831171018 | 88 | 190 | 2.0 | 10.0 | 0.00 | 0.01 | 0.01 | 61 | 1017.1 |
| 20260831170520 | 88 | 200 | 4.0 | 10.0 | 0.00 | 0.01 | 0.01 | 60 | 1017.1 |
| 20260831170045 | 88 | 267 | 6.0 | 10.0 | 0.00 | 0.01 | 0.01 | 59 | 1017.2 |
| 20260831170037 | 97 | 164 | 2.0 | 13.0 | 0.00 | 0.00 | 0.00 | 27 | 1016.9 |
| 20260831165513 | 87 | 166 | 4.0 | 9.0 | 0.00 | 0.01 | 0.01 | 61 | 1017.3 |
| 20260831165014 | 87 | 205 | 3.0 | 8.0 | 0.00 | 0.01 | 0.01 | 61 | 1017.3 |
| 20260831164532 | 86 | 189 | 3.0 | 8.0 | 0.00 | 0.01 | 0.01 | 61 | 1017.4 |
| 20260831164013 | 86 | 174 | 2.0 | 8.0 | 0.00 | 0.01 | 0.01 | 63 | 1017.4 |
| 20260831163514 | 85 | 145 | 2.0 | 6.0 | 0.00 | 0.01 | 0.01 | 62 | 1017.4 |
| 20260831163031 | 95 | 114 | 1.0 | 9.0 | 0.00 | 0.00 | 0.00 | 31 | 1016.7 |
| 20260831162515 | 85 | 269 | 4.0 | 10.0 | 0.00 | 0.01 | 0.01 | 62 | 1017.4 |
| 20260831162016 | 85 | 171 | 3.0 | 12.0 | 0.00 | 0.01 | 0.01 | 62 | 1017.4 |
| 20260831161531 | 85 | 163 | 5.0 | 12.0 | 0.00 | 0.01 | 0.01 | 63 | 1017.5 |
| 20260831161527 | 94 | 120 | 1.0 | 11.0 | 0.00 | 0.00 | 0.00 | 32 | 1016.8 |
| 20260831161015 | 84 | 182 | 4.0 | 9.0 | 0.00 | 0.01 | 0.01 | 65 | 1017.5 |
| 20260831160518 | 84 | 259 | 3.0 | 10.0 | 0.00 | 0.01 | 0.01 | 64 | 1017.5 |
| 20260831160036 | 84 | 275 | 1.0 | 11.0 | 0.00 | 0.01 | 0.01 | 65 | 1017.5 |
| 20260831160023 | 96 | 113 | 0.0 | 5.0 | 0.00 | 0.00 | 0.00 | 33 | 1016.7 |
| 20260831155518 | 83 | 230 | 2.0 | 11.0 | 0.00 | 0.01 | 0.01 | 68 | 1017.4 |
| 20260831155014 | 83 | 185 | 3.0 | 8.0 | 0.00 | 0.01 | 0.01 | 67 | 1017.5 |
| 20260831154556 | 83 | 211 | 3.0 | 11.0 | 0.00 | 0.01 | 0.01 | 67 | 1017.5 |
| 20260831154517 | 95 | 155 | 0.0 | 2.0 | 0.00 | 0.00 | 0.00 | 33 | 1016.7 |
| 20260831154012 | 82 | 192 | 4.0 | 11.0 | 0.00 | 0.01 | 0.01 | 67 | 1017.4 |
| 20260831153510 | 81 | 183 | 3.0 | 8.0 | 0.00 | 0.01 | 0.01 | 70 | 1017.4 |
| 20260831153015 | 93 | 223 | 0.0 | 2.0 | 0.00 | 0.00 | 0.00 | 37 | 1016.6 |
| 20260831153008 | 81 | 198 | 2.0 | 8.0 | 0.00 | 0.01 | 0.01 | 69 | 1017.4 |
| 20260831152504 | 80 | 242 | 2.0 | 8.0 | 0.00 | 0.01 | 0.01 | 70 | 1017.4 |
| 20260831152008 | 80 | 181 | 2.0 | 8.0 | 0.00 | 0.01 | 0.01 | 71 | 1017.4 |
| 20260831151510 | 91 | 205 | 0.0 | 3.0 | 0.00 | 0.00 | 0.00 | 40 | 1016.6 |
| 20260831151007 | 79 | 84 | 1.0 | 8.0 | 0.00 | 0.01 | 0.01 | 72 | 1017.4 |
| 20260831150504 | 79 | 132 | 4.0 | 8.0 | 0.00 | 0.01 | 0.01 | 72 | 1017.4 |
| 20260831150010 | 79 | 141 | 0.0 | 5.0 | 0.00 | 0.01 | 0.01 | 72 | 1017.3 |
| 20260831150002 | 89 | 221 | 0.0 | 4.0 | 0.00 | 0.00 | 0.00 | 44 | 1016.6 |
| 20260831145507 | 78 | 269 | 1.0 | 5.0 | 0.00 | 0.01 | 0.01 | 75 | 1017.2 |
| 20260831145009 | 78 | 192 | 2.0 | 5.0 | 0.00 | 0.01 | 0.01 | 75 | 1017.4 |
| 20260831144558 | 89 | 224 | 0.0 | 2.0 | 0.00 | 0.00 | 0.00 | 46 | 1016.4 |
| 20260831144526 | 77 | 178 | 2.0 | 6.0 | 0.00 | 0.01 | 0.01 | 75 | 1017.4 |
| 20260831144011 | 77 | 185 | 3.0 | 7.0 | 0.00 | 0.01 | 0.01 | 75 | 1017.4 |
| 20260831143511 | 76 | 132 | 1.0 | 7.0 | 0.00 | 0.01 | 0.01 | 75 | 1017.4 |
| 20260831143111 | 87 | 221 | 0.0 | 2.0 | 0.00 | 0.00 | 0.00 | 49 | 1016.5 |
| 20260831143024 | 76 | 160 | 4.0 | 7.0 | 0.00 | 0.01 | 0.01 | 75 | 1017.4 |
| 20260831142515 | 76 | 182 | 1.0 | 6.0 | 0.00 | 0.02 | 0.01 | 76 | 1017.2 |
| 20260831142004 | 76 | 200 | 2.0 | 5.0 | 0.00 | 0.02 | 0.01 | 76 | 1017.2 |
| 20260831141601 | 87 | 221 | 0.0 | 3.0 | 0.00 | 0.00 | 0.00 | 48 | 1016.7 |
| 20260831141511 | 76 | 192 | 2.0 | 6.0 | 0.00 | 0.02 | 0.01 | 76 | 1017.2 |
| 20260831141003 | 75 | 159 | 1.0 | 6.0 | 0.00 | 0.02 | 0.01 | 77 | 1017.1 |
| 20260831140506 | 75 | 198 | 2.0 | 7.0 | 0.00 | 0.02 | 0.01 | 77 | 1017.1 |
| 20260831140051 | 88 | 216 | 0.0 | 2.0 | 0.00 | 0.00 | 0.00 | 48 | 1016.7 |
| 20260831140022 | 75 | 134 | 1.0 | 7.0 | 0.00 | 0.02 | 0.01 | 76 | 1017.1 |
| 20260831135504 | 75 | 217 | 2.0 | 8.0 | 0.00 | 0.02 | 0.01 | 76 | 1017.1 |
| 20260831135007 | 75 | 169 | 2.0 | 8.0 | 0.00 | 0.02 | 0.01 | 77 | 1017.1 |
| 20260831134546 | 86 | 149 | 0.0 | 0.0 | 0.00 | 0.00 | 0.00 | 51 | 1016.5 |
| 20260831134516 | 75 | 185 | 2.0 | 6.0 | 0.00 | 0.02 | 0.01 | 77 | 1017.0 |